Вернуться в каталог

COSMOS 1275 DEB

АктивенPO
NORAD 17635·DEBRIS·🇷🇺 Russia

Запущен Jun 4, 1981 с Plesetsk Cosmodrome

Loading…

Ближайшие Пролёты (ближайшие 24 часа)

TLE

СвежийSource: Space-Track

Эпоха: Sep 14, 2026, 20:23 UTC

1 17635U 81053LE  26257.84958321  .00002053  00000-0  88134-3 0  9998
2 17635  82.8206 307.2219 0033254   9.0335 351.1439 14.24063189110939

Отслеживайте COSMOS 1275 DEB в реальном времени с AllMySat

Download on the App Store